Location: Wawayanda State Park
(41.1833°N, 74.4333°W)
Time: 21:35:12
(UTC-05:00)

Daily predictions for brighter satellites

Satellite Brightness Start Highest point End
(mag) Time Altitude Azimuth Time Altitude Azimuth Time Altitude Azimuth
BREEZE-M DEB (TANK) 3.5 17:58:27 10° WNW 18:00:39 44° N 18:07:50 10° ENE
Cosmos 1340 4.2 18:03:09 10° NNE 18:05:44 17° ENE 18:08:19 10° ESE
Cosmos 1782 Rocket 3.8 18:01:26 10° S 18:05:52 81° W 18:10:21 10° N
Cosmos 2322 Rocket 2.3 18:01:29 10° NNW 18:07:03 59° ENE 18:12:34 10° SE
Cosmos 44 Rocket 3.9 18:09:33 10° NW 18:14:14 59° WSW 18:18:49 10° SSE
Meteor 1-28 Rocket 3.2 18:11:20 10° NNE 18:15:09 81° E 18:18:58 10° S
Thor Agena Rocket 4.5 18:12:51 10° N 18:17:45 51° WNW 18:22:36 10° SW
BREEZE-M DEB (TANK) 4.0 18:15:40 10° NW 18:18:08 27° NNE 18:22:55 10° E
COSMO-SKYMED 1 2.9 18:15:02 10° N 18:19:22 73° WNW 18:23:41 10° SSW
Tiangong 2 1.0 18:16:28 10° WNW 18:19:33 83° SSW 18:22:34 10° ESE
Cosmos 1709 Rocket 4.3 18:16:55 10° SSE 18:22:46 44° E 18:28:33 10° NNE
Okean 2 Rocket 3.5 18:19:57 10° SSW 18:24:23 69° W 18:28:50 10° N
FENGYUN 3A 4.2 18:19:59 10° SE 18:24:55 37° ENE 18:29:52 10° N
Cosmos 1140 Rocket 4.3 18:21:39 10° SSE 18:25:54 27° E 18:30:11 10° NE
Cosmos 1190 Rocket 3.9 18:20:47 10° SSW 18:25:57 79° ESE 18:31:11 10° NNE
BREEZE-M DEB (TANK) 4.2 18:24:22 10° SSW 18:27:58 19° SSE 18:29:40 13° ESE
CZ-3C R/B 4.1 18:25:31 10° SW 18:28:04 11° SSW 18:29:58 10° S
Okean 1 3.4 18:24:31 10° N 18:28:32 56° E 18:32:31 10° SSE
Cosmos 1461 2.7 18:26:39 10° NNW 18:30:39 68° NE 18:34:44 10° SE
Cosmos 2292 Rocket 4.3 18:27:02 10° SSE 18:31:49 57° E 18:38:15 10° NNE
COSMOS 2428 4.1 18:28:01 10° N 18:32:06 20° NE 18:34:54 14° E
deb Kosmos-1763 4.2 18:28:51 10° SSW 18:32:39 81° WNW 18:36:28 10° NNE
CENTAUR R/B 4.1 18:26:12 10° NW 18:33:50 52° WSW 18:41:50 10° S
Cosmos 44 3.7 18:30:00 10° NW 18:34:21 56° WSW 18:38:32 10° SSE
Meteor 1-25 Rocket 4.4 18:29:10 10° SSW 18:34:46 81° W 18:40:29 10° N
Spot 2 Rocket 4.0 18:31:42 10° SE 18:36:16 36° ENE 18:40:53 10° N
H-2A R/B 3.6 18:35:45 10° SE 18:38:51 26° ENE 18:42:01 10° NNE
Cosmos 2151 Rocket 3.6 18:38:31 10° S 18:43:01 87° ESE 18:47:35 10° N
Cosmos 1812 3.6 18:42:10 10° NNW 18:45:57 53° W 18:49:42 10° S
Helios 1A 4.2 18:44:51 20° E 18:46:03 22° ENE 18:49:18 10° NNE
NOAA 12 4.4 18:43:14 10° S 18:48:32 72° WSW 18:53:52 10° NNW
Meteor 1-11 Rocket 4.0 18:43:34 10° SSE 18:49:04 48° E 18:54:42 10° NNE
Okean 1 Rocket 3.6 18:45:44 10° SSE 18:49:51 37° E 18:53:59 10° NNE
METEOR-M 4.5 18:46:34 10° S 18:51:53 69° WSW 18:57:14 10° NNW
Envisat 4.5 18:52:53 17° ENE 18:52:53 17° ENE 18:56:02 10° NNE
GEOS 3 Rocket 3.6 18:48:27 10° NE 18:53:42 74° SE 18:58:59 10° SSW
Cosmos 1954 Rocket 3.9 18:48:37 10° S 18:53:44 66° ESE 18:58:55 10° NNE
Cosmos 2219 4.1 18:51:34 10° SSE 18:56:18 27° ESE 18:58:54 20° ENE
HJ-1C 3.2 18:53:24 10° SSE 18:56:45 71° ENE 19:00:08 10° N
Cosmos 2360 Rocket 2.2 18:53:40 10° NNW 18:59:17 61° ENE 19:04:52 10° SE
Cosmos 2219 Rocket 3.6 18:58:05 10° N 19:01:59 19° NE 19:02:23 19° NE
Helios 1B rocket 3.4 19:07:49 28° SE 19:07:49 28° SE 19:10:33 10° SSE
Okean 1-7 Rocket 3.9 19:03:54 10° N 19:08:15 44° ENE 19:10:37 23° SE
Cosmos 1602 3.7 19:07:51 10° S 19:11:42 84° W 19:15:38 10° N
Cosmos 1633 2.7 19:08:31 10° SSW 19:12:12 75° W 19:15:54 10° N
Cosmos 1025 Rocket 3.4 19:14:34 10° N 19:18:32 41° ENE 19:18:32 41° ENE
ALOS 2.6 19:14:56 10° S 19:19:33 65° WSW 19:24:13 10° NNW
NOSS 8 (F) 4.3 19:18:06 10° SSW 19:21:37 70° ESE 19:21:43 69° ESE
Cosmos 1833 4.3 19:16:00 10° SSW 19:21:43 79° WNW 19:27:24 10° NNE
Spot 1 3.9 19:21:15 49° ESE 19:21:56 57° ENE 19:25:59 10° N
Cosmos 2333 Rocket 3.5 19:22:59 10° N 19:27:01 24° NE 19:27:01 24° NE
Cosmos 1818 4.5 19:24:08 10° SW 19:29:22 48° NW 19:34:41 10° NNE
SL-16 R/B 4.2 19:28:07 10° NW 19:32:51 28° WSW 19:37:35 10° SSW
Intercosmos 24 4.1 19:29:14 10° S 19:33:11 65° E 19:38:44 10° NNE
Cosmos 1741 Rocket 3.8 19:28:52 10° S 19:34:03 70° ESE 19:37:55 18° NNE
SL-08 ROCKET BODY 4.3 19:28:35 10° S 19:34:44 79° E 19:40:57 10° N
Resurs 01 Rocket 2.5 19:34:46 10° S 19:39:03 50° W 19:43:21 10° NNW
Cosmos 1610 Rocket 4.5 19:34:59 10° SSE 19:41:01 53° E 19:47:01 10° NNE
Cosmos 1238 Rocket 4.4 19:40:19 10° NNW 19:42:52 25° W 19:45:21 10° SSW
Gbstr 26 Del rocket 3.2 19:41:03 10° SW 19:43:57 51° SW 19:43:57 51° SW
Cosmos 1570 Rocket 3.9 19:42:13 10° NNW 19:47:28 90° WSW 19:48:44 53° SSE
DELTA 2 R/B (1) 4.0 19:42:09 10° W 19:47:36 52° SSW 19:48:38 45° SSE
Cosmos 2327 Rocket 4.4 19:41:38 10° S 19:47:49 83° E 19:54:10 10° N
Meteor 1-5 Rocket 4.2 19:43:25 10° S 19:49:24 81° E 19:55:20 10° NNE
Tiangong 2 3.8 19:53:24 10° W 19:54:34 16° WSW 19:54:34 16° WSW
Cosmos 1536 4.0 19:55:15 10° SSW 19:59:02 41° WNW 20:02:49 10° N
Cosmos 2074 Rocket 4.3 20:00:53 10° SSW 20:07:03 66° W 20:13:19 10° N
Cosmos 2184 Rocket 4.3 20:01:29 10° SSW 20:07:46 68° W 20:14:01 10° N
Cosmos 2208 Rocket 4.5 20:06:20 10° NNW 20:11:43 61° WSW 20:12:30 54° SW
COSMOS 2428 2.8 20:11:15 10° NNW 20:16:55 69° WSW 20:16:58 69° WSW
Cosmos 2333 4.4 20:14:44 10° NNW 20:20:01 70° WNW 20:20:01 70° WNW
Cosmos 2237 Rocket 3.7 20:21:08 10° NNW 20:23:53 27° N 20:23:53 27° N
Nadezhda 3 Rocket 4.4 20:22:44 10° N 20:27:16 52° N 20:27:16 52° N
Envisat 4.2 20:33:05 38° NW 20:33:05 38° NW 20:36:19 10° NNW
USA 229 DEB 3.7 20:25:17 10° NW 20:32:15 84° WNW 20:32:15 84° WNW
USA 229 3.7 20:25:23 10° NW 20:32:19 84° WNW 20:32:19 84° WNW
Cosmos 2285 Rocket 4.3 20:28:16 10° NNW 20:34:37 65° WSW 20:34:37 65° WSW
Cosmos 2219 4.2 20:34:44 10° SW 20:40:12 44° WNW 20:41:02 41° NW
Cosmos 2219 Rocket 3.5 20:40:55 10° NNW 20:44:08 35° NW 20:44:08 35° NW
Cosmos 2333 Rocket 4.1 21:06:36 10° NNW 21:09:02 25° NW 21:09:02 25° NW
